Total_Precipitation_Accumulation
0.21 0.23 0.31 0.51 0.61 0.58 0.55 0.61 0.84 0.85 0.78 0.72 0.67 0.69 0.70 0.74 0.70 0.62 0.58 0.59 0.64 0.67 0.67 0.64 0.60 0.64 0.67 0.73 0.84 0.99 1.12 1.10 0.96 0.77 0.64 0.58 0.54 0.47 0.46 0.47 0.49 0.56 0.63 0.67
0.10 0.11 0.20 0.34 0.44 0.46 0.43 0.43 0.52 0.59 0.57 0.48 0.46 0.50 0.50 0.51 0.46 0.42 0.39 0.37 0.35 0.35 0.36 0.36 0.32 0.29 0.29 0.37 0.53 0.78 1.03 1.01 0.79 0.62 0.50 0.45 0.46 0.46 0.42 0.41 0.46 0.52 0.51 0.55
0.11 0.09 0.15 0.37 0.40 0.38 0.37 0.30 0.31 0.36 0.36 0.32 0.35 0.42 0.42 0.44 0.44 0.33 0.26 0.25 0.25 0.24 0.23 0.22 0.21 0.19 0.21 0.29 0.41 0.58 0.69 0.66 0.56 0.46 0.44 0.47 0.49 0.44 0.43 0.43 0.44 0.46 0.46 0.47
0.12 0.14 0.38 0.63 0.56 0.47 0.43 0.24 0.17 0.18 0.20 0.23 0.33 0.36 0.37 0.35 0.34 0.32 0.23 0.16 0.17 0.16 0.16 0.17 0.18 0.21 0.25 0.29 0.35 0.40 0.43 0.44 0.39 0.37 0.39 0.42 0.43 0.43 0.49 0.55 0.52 0.51 0.52 0.51
0.20 0.26 0.48 0.59 0.52 0.51 0.50 0.35 0.15 0.12 0.13 0.13 0.12 0.14 0.17 0.18 0.15 0.15 0.11 0.08 0.08 0.07 0.07 0.08 0.08 0.09 0.10 0.12 0.14 0.15 0.15 0.16 0.16 0.17 0.19 0.21 0.23 0.29 0.40 0.47 0.50 0.52 0.56 0.56
0.25 0.33 0.47 0.39 0.24 0.26 0.39 0.46 0.13 0.07 0.07 0.05 0.04 0.07 0.09 0.10 0.11 0.08 0.06 0.06 0.05 0.04 0.04 0.05 0.04 0.03 0.03 0.03 0.03 0.03 0.03 0.04 0.06 0.07 0.07 0.09 0.11 0.16 0.22 0.23 0.29 0.38 0.41 0.44
0.27 0.45 0.65 0.47 0.26 0.24 0.42 0.42 0.09 0.04 0.03 0.02 0.04 0.03 0.04 0.07 0.09 0.07 0.06 0.06 0.06 0.05 0.05 0.05 0.05 0.04 0.03 0.03 0.03 0.03 0.03 0.03 0.04 0.05 0.05 0.05 0.07 0.09 0.13 0.14 0.19 0.22 0.27 0.33
0.33 0.62 0.84 0.65 0.43 0.36 0.28 0.12 0.04 0.01 0.01 0.01 0.01 0.02 0.03 0.05 0.06 0.06 0.06 0.06 0.05 0.04 0.05 0.05 0.05 0.05 0.04 0.04 0.03 0.03 0.04 0.03 0.03 0.04 0.05 0.05 0.05 0.07 0.09 0.11 0.13 0.15 0.17 0.22
0.26 0.48 0.53 0.48 0.36 0.26 0.18 0.08 0.01 0.00 0.00 0.01 0.01 0.01 0.02 0.04 0.04 0.04 0.05 0.05 0.05 0.05 0.04 0.05 0.05 0.04 0.04 0.04 0.04 0.04 0.03 0.03 0.03 0.04 0.05 0.05 0.07 0.08 0.08 0.09 0.11 0.13 0.16 0.23
0.07 0.12 0.17 0.20 0.19 0.12 0.10 0.06 0.01 0.00 0.01 0.01 0.01 0.01 0.02 0.04 0.05 0.05 0.04 0.05 0.05 0.06 0.05 0.06 0.07 0.06 0.07 0.05 0.04 0.03 0.03 0.02 0.03 0.04 0.04 0.05 0.07 0.08 0.09 0.10 0.11 0.15 0.21 0.27
0.08 0.05 0.05 0.09 0.10 0.09 0.06 0.03 0.01 0.01 0.01 0.01 0.01 0.02 0.02 0.03 0.06 0.07 0.06 0.06 0.08 0.09 0.07 0.06 0.08 0.08 0.10 0.10 0.07 0.04 0.03 0.02 0.02 0.03 0.04 0.04 0.05 0.05 0.07 0.07 0.10 0.17 0.24 0.29
0.07 0.04 0.04 0.05 0.06 0.05 0.03 0.01 0.01 0.00 0.00 0.00 0.01 0.01 0.02 0.02 0.04 0.06 0.06 0.05 0.05 0.07 0.07 0.05 0.05 0.07 0.08 0.09 0.10 0.09 0.06 0.03 0.03 0.03 0.04 0.05 0.05 0.05 0.06 0.08 0.12 0.15 0.15 0.17
0.03 0.03 0.03 0.03 0.03 0.02 0.01 0.01 0.00 0.00 0.00 0.00 0.00 0.01 0.01 0.02 0.02 0.04 0.05 0.03 0.03 0.03 0.04 0.04 0.04 0.03 0.03 0.04 0.05 0.06 0.07 0.06 0.04 0.04 0.04 0.06 0.07 0.09 0.11 0.09 0.07 0.07 0.07 0.09
0.02 0.02 0.03 0.02 0.02 0.02 0.01 0.01 0.01 0.00 0.00 0.00 0.00 0.00 0.01 0.01 0.01 0.02 0.03 0.02 0.02 0.03 0.03 0.03 0.03 0.02 0.01 0.01 0.01 0.02 0.02 0.04 0.04 0.06 0.08 0.09 0.10 0.14 0.19 0.22 0.20 0.13 0.08 0.06
0.02 0.02 0.02 0.01 0.02 0.02 0.01 0.01 0.01 0.01 0.01 0.00 0.00 0.00 0.00 0.00 0.01 0.01 0.02 0.02 0.02 0.03 0.02 0.02 0.02 0.02 0.02 0.01 0.01 0.01 0.01 0.02 0.05 0.11 0.13 0.12 0.14 0.19 0.21 0.17 0.14 0.13 0.11 0.09
0.03 0.02 0.02 0.01 0.01 0.01 0.01 0.01 0.01 0.01 0.01 0.01 0.01 0.01 0.01 0.01 0.01 0.01 0.01 0.02 0.03 0.03 0.03 0.02 0.03 0.03 0.02 0.01 0.01 0.02 0.02 0.03 0.05 0.10 0.13 0.12 0.12 0.14 0.14 0.12 0.10 0.11 0.12 0.13
0.04 0.03 0.03 0.02 0.02 0.01 0.01 0.01 0.01 0.01 0.01 0.01 0.01 0.01 0.01 0.01 0.01 0.01 0.01 0.02 0.02 0.03 0.03 0.03 0.03 0.03 0.03 0.02 0.03 0.03 0.04 0.05 0.06 0.09 0.11 0.09 0.10 0.11 0.12 0.13 0.13 0.14 0.14 0.14
0.03 0.03 0.02 0.02 0.02 0.01 0.01 0.01 0.01 0.01 0.01 0.01 0.01 0.02 0.02 0.03 0.03 0.03 0.03 0.03 0.03 0.04 0.04 0.05 0.04 0.04 0.04 0.04 0.05 0.05 0.06 0.08 0.10 0.12 0.13 0.11 0.12 0.14 0.16 0.16 0.16 0.17 0.18 0.18
0.03 0.02 0.02 0.02 0.02 0.02 0.02 0.02 0.02 0.02 0.01 0.01 0.01 0.02 0.03 0.04 0.03 0.02 0.03 0.04 0.04 0.03 0.03 0.04 0.04 0.04 0.04 0.05 0.06 0.07 0.08 0.10 0.12 0.14 0.15 0.14 0.15 0.18 0.20 0.19 0.18 0.19 0.20 0.21
0.04 0.04 0.03 0.02 0.02 0.01 0.02 0.02 0.02 0.02 0.02 0.02 0.02 0.02 0.03 0.04 0.04 0.04 0.05 0.05 0.05 0.04 0.03 0.04 0.05 0.05 0.05 0.06 0.08 0.09 0.11 0.14 0.17 0.19 0.19 0.18 0.19 0.20 0.21 0.20 0.21 0.22 0.22 0.23
0.04 0.03 0.03 0.02 0.02 0.01 0.02 0.02 0.02 0.02 0.02 0.02 0.03 0.03 0.04 0.04 0.04 0.05 0.06 0.06 0.05 0.05 0.04 0.05 0.04 0.04 0.05 0.08 0.11 0.13 0.15 0.17 0.19 0.20 0.21 0.20 0.20 0.21 0.23 0.22 0.23 0.25 0.25 0.24
0.06 0.05 0.04 0.03 0.02 0.02 0.02 0.02 0.02 0.02 0.02 0.03 0.03 0.04 0.04 0.04 0.04 0.04 0.05 0.06 0.06 0.07 0.07 0.07 0.07 0.07 0.09 0.12 0.11 0.12 0.15 0.17 0.19 0.22 0.24 0.23 0.24 0.25 0.26 0.27 0.28 0.30 0.31 0.32
0.09 0.07 0.06 0.05 0.05 0.04 0.04 0.03 0.03 0.03 0.03 0.03 0.04 0.04 0.05 0.05 0.05 0.06 0.06 0.06 0.07 0.09 0.10 0.09 0.12 0.15 0.18 0.14 0.11 0.12 0.14 0.16 0.17 0.20 0.24 0.28 0.30 0.31 0.31 0.29 0.30 0.31 0.33 0.37
0.10 0.09 0.07 0.07 0.06 0.06 0.06 0.06 0.05 0.04 0.04 0.04 0.05 0.05 0.07 0.07 0.07 0.08 0.09 0.11 0.12 0.13 0.12 0.12 0.15 0.19 0.22 0.17 0.16 0.16 0.18 0.19 0.19 0.19 0.22 0.25 0.29 0.30 0.31 0.31 0.32 0.32 0.32 0.33
0.09 0.10 0.10 0.10 0.09 0.08 0.08 0.08 0.08 0.07 0.07 0.08 0.09 0.09 0.09 0.09 0.11 0.11 0.11 0.13 0.14 0.15 0.15 0.16 0.18 0.20 0.20 0.20 0.21 0.21 0.23 0.25 0.26 0.27 0.27 0.28 0.30 0.32 0.33 0.34 0.37 0.39 0.38 0.36
0.08 0.09 0.10 0.11 0.11 0.11 0.10 0.09 0.09 0.09 0.09 0.11 0.11 0.11 0.11 0.11 0.11 0.11 0.11 0.13 0.14 0.16 0.17 0.18 0.19 0.20 0.21 0.25 0.27 0.27 0.27 0.28 0.28 0.29 0.30 0.33 0.34 0.36 0.39 0.42 0.42 0.46 0.46 0.43
0.07 0.08 0.09 0.10 0.11 0.11 0.11 0.11 0.10 0.10 0.10 0.11 0.11 0.10 0.11 0.13 0.14 0.14 0.14 0.14 0.16 0.19 0.21 0.23 0.24 0.26 0.28 0.30 0.31 0.32 0.34 0.34 0.33 0.33 0.34 0.37 0.38 0.40 0.43 0.46 0.49 0.52 0.53 0.52